Location: Camaret
(48.2753°N, 4.5961°W)
Time: 02:47:31
(UTC+00:00)

Cosmos 2369 Rocket - Pass Details

Date: 29 October 2020
Orbit: 827 x 854 km, 71.0° (Epoch: 01 December)

Event Time Altitude Azimuth Distance (km) Brightness Sun altitude
Rises 17:28:34 0° 250° (WSW) 3,400 8.2 -4.8°
Reaches altitude 10° 17:31:30 10° 264° (W) 2,473 6.4 -5.3°
Maximum altitude 17:36:00 23° 317° (NW) 1,720 4.2 -6.0°
Drops below altitude 10° 17:40:32 10° 9° (N) 2,493 4.4 -6.7°
Sets 17:43:31 0° 24° (NNE) 3,434 5.0 -7.2°
